Location: Sternwarte ZA, Rosenfeld-Brittheim
(48.2889°N, 8.6789°E)
Time: 19:01:43
(UTC+02:00)

X-37B - Pass Details

Date: 02 October 2021
Orbit: 322 x 349 km, 45.0° (Epoch: 28 October)

Event Time Altitude Azimuth Distance (km) Brightness Sun altitude
Exits shadow 05:25:21 19° 137° (SE) 852 2.5 -20.6°
Drops below altitude 10° 05:26:24 10° 124° (SE) 1,232 3.6 -20.5°
Sets 05:28:28 0° 114° (ESE) 2,061 5.0 -20.1°
